RH
13 13 14 14 13 13 14 14 15 15 16 16 15 16 17 19 20 19 19 20 18 17 16 16 16 15 16 17 17 15 14 16 18 18 17 20 20 21 20 19 18 19 18 17 18
14 13 14 14 14 14 14 15 15 15 15 15 15 16 16 17 21 21 21 21 20 19 18 17 16 17 19 20 19 18 17 19 20 21 22 22 24 23 22 20 19 20 22 20 18
17 17 17 15 14 14 15 15 15 16 15 15 16 16 17 18 21 22 22 23 22 20 20 19 18 19 21 22 22 22 20 22 23 24 24 24 24 25 22 19 20 21 21 20 18
15 16 17 15 15 15 14 14 15 15 16 15 16 16 17 19 21 22 23 24 23 22 21 21 21 21 23 23 26 26 23 24 24 26 25 24 22 21 21 17 19 20 22 22 20
11 12 13 14 14 13 14 14 13 14 14 14 14 15 16 18 22 23 23 23 25 24 23 23 23 24 24 27 27 26 25 26 26 26 26 25 23 21 17 18 18 19 19 20 21
11 10 10 11 13 13 12 13 14 12 12 13 14 14 15 16 20 23 24 24 25 26 26 27 27 28 28 30 30 30 31 29 26 27 27 25 22 23 18 19 19 20 19 18 18
16 15 15 13 11 10 10 12 12 15 11 12 15 15 15 16 20 23 24 25 26 27 29 28 27 29 29 31 32 34 29 28 29 30 30 27 23 23 20 21 21 21 19 18 17
23 20 17 16 16 16 15 11 10 12 14 12 13 15 16 18 21 23 23 26 27 29 30 30 29 31 31 30 30 30 31 29 30 32 32 32 23 22 25 24 22 22 21 19 19
21 19 18 18 18 19 18 17 15 12 14 16 14 15 18 18 20 21 23 26 28 30 32 32 32 31 30 29 30 32 30 32 31 34 36 38 31 25 29 27 26 25 22 22 20
22 19 18 21 21 17 16 16 17 17 16 16 18 15 18 18 18 22 23 26 29 29 33 34 34 32 31 33 38 36 37 34 36 33 38 38 34 29 29 31 31 31 28 26 24
24 21 22 23 20 17 16 16 17 19 19 19 20 19 17 19 21 24 24 25 27 31 32 34 35 35 34 35 38 41 42 40 35 37 39 36 35 31 29 33 35 36 35 35 33
26 24 22 21 22 18 17 17 22 23 27 20 24 24 22 20 23 25 25 26 27 31 33 34 36 36 39 39 41 41 41 38 36 41 45 39 37 32 34 34 38 42 42 41 40
29 22 21 23 23 21 19 21 22 26 29 25 25 28 25 23 25 26 26 26 27 29 34 33 34 39 42 40 43 38 41 39 45 46 43 44 35 36 39 43 45 50 51 49 48
28 21 22 28 26 24 22 21 24 28 28 25 30 29 27 25 25 24 26 26 26 28 33 33 34 38 40 42 45 44 44 49 52 57 50 49 47 37 39 48 51 50 53 55 56
27 21 24 30 29 27 26 22 25 29 42 24 30 30 30 26 24 27 27 27 28 28 31 28 32 36 37 38 45 45 51 55 59 56 59 49 58 42 44 54 53 55 55 58 57
21 20 20 29 27 26 27 23 27 29 35 25 29 30 30 29 26 27 29 27 28 30 31 31 33 36 35 39 45 48 52 54 61 58 63 51 58 48 47 53 55 59 56 59 60
21 18 19 23 27 24 28 27 31 35 22 27 28 29 31 31 26 26 27 26 27 34 31 27 27 31 36 39 43 47 52 59 59 65 50 55 63 55 54 57 59 58 60 63 62
23 20 19 19 22 24 28 29 29 21 23 29 30 28 27 29 30 27 25 26 30 29 35 32 32 27 34 38 49 49 49 64 70 66 55 53 67 47 51 56 60 60 60 59 61
26 25 25 23 24 28 29 31 27 24 33 33 28 25 27 31 31 27 24 25 30 33 28 33 29 28 34 38 40 47 54 59 75 69 76 53 47 45 47 52 60 59 54 55 62
29 31 32 32 32 32 30 28 26 30 35 33 26 26 25 29 29 32 26 26 30 37 35 34 33 30 33 38 41 44 49 62 74 84 70 53 51 50 44 49 54 53 51 53 62
34 36 38 40 38 38 35 32 31 33 36 35 35 33 32 31 33 35 36 32 29 33 39 42 42 31 33 36 34 45 47 57 64 85 77 68 46 38 43 46 49 48 49 53 60
34 37 44 44 43 44 41 40 41 38 40 39 39 38 36 37 36 36 38 43 40 38 35 43 46 40 30 32 34 35 37 46 55 82 84 76 54 38 40 44 45 49 53 53 63
39 42 44 45 43 45 45 46 45 43 42 45 47 45 44 42 39 40 43 48 54 51 46 43 46 50 37 39 39 40 41 46 49 74 84 76 46 38 37 40 42 55 59 63 65
42 45 47 49 47 47 48 45 46 45 45 45 45 46 46 46 44 45 44 49 53 55 54 48 46 52 48 34 34 36 38 44 53 66 72 63 44 35 34 39 44 56 60 62 63
46 52 52 53 55 56 53 50 48 50 50 51 53 55 56 55 54 54 54 53 54 58 60 53 51 50 49 48 42 43 40 44 51 54 65 56 48 38 35 39 47 59 62 64 69
47 50 52 52 51 57 56 55 54 56 59 58 60 63 62 61 62 66 66 66 66 65 67 64 64 62 56 46 44 45 42 41 47 51 49 61 53 42 36 40 51 62 70 81 88
47 49 50 48 52 56 58 59 61 61 62 63 65 65 62 62 64 65 64 63 63 66 70 71 70 69 62 58 50 37 35 40 50 46 45 62 48 44 42 44 54 70 76 81 80